[Date Prev][Date Next][Thread Prev][Thread Next] - [Date Index][Thread Index][Author Index]

2 Line ISS Keps 3-29



ISS
1 25544U 98067A   02088.16604131  .00039659  00000-0  50322-3 0  2417
2 25544  51.6359  95.0284 0003585 335.3348 112.1567 15.59022864191555


----
Via the sarex mailing list at AMSAT.ORG courtesy of AMSAT-NA.
To unsubscribe, send "unsubscribe sarex" to Majordomo@amsat.org



AMSAT Top AMSAT Home